This demonstration page uses our WeatherBlox Daily Observations layout. Learn more.

Left ArrowRight Arrow

Hourly Observations for November 23, 2018

Temp ( °F °C ) Dew Point ( °F °C ) Humidity (%) Winds ( mph kmh ) Pressure ( in mb ) Visibility ( mi km ) Precip ( " mm )
12:53 am 00:53 Clear 47 8.3 43 6.1 86 86 SE 3 6 29.89 1012 10 16 0.00 0.00
1:53 am 01:53 Clear 47 8.3 43 6.1 86 86 S 5 7 29.87 1012 10 16 0.00 0.00
2:53 am 02:53 Clear 48 8.9 42 5.6 80 80 Calm 29.87 1011 10 16 0.00 0.00
3:53 am 03:53 Clear 45 7.2 40 4.4 83 83 NNE 7 11 29.88 1012 10 16 0.00 0.00
4:53 am 04:53 Clear 53 11.7 37 2.8 55 55 W 15 24 29.86 1011 10 16 0.00 0.00
5:53 am 05:53 Clear 53 11.7 35 1.7 51 51 W 12 19 29.89 1012 10 16 0.00 0.00
6:53 am 06:53 Clear 49 9.4 35 1.7 59 59 W 10 17 29.92 1013 10 16 0.00 0.00
7:53 am 07:53 Sunny 51 10.6 34 1.1 52 52 WNW 12 19 29.93 1014 10 16 0.00 0.00
8:53 am 08:53 Sunny 53 11.7 35 1.7 51 51 NW 6 9 29.96 1015 10 16 0.00 0.00
9:53 am 09:53 Sunny 59 15 35 1.7 41 41 W 10 17 29.97 1015 10 16 0.00 0.00
10:53 am 10:53 Sunny 65 18.3 30 -1.1 27 27 W 13 20 29.98 1015 10 16 0.00 0.00
11:53 am 11:53 Sunny 68 20 25 -3.9 20 20 W 15 24 29.96 1015 10 16 0.00 0.00
12:53 pm 12:53 Sunny 70 21.1 18 -7.8 14 14 W 13 20 29.92 1013 10 16 0.00 0.00
1:53 pm 13:53 Sunny 70 21.1 15 -9.4 12 12 WNW 12 19 29.88 1012 10 16 0.00 0.00
2:53 pm 14:53 Sunny 71 21.7 17 -8.3 13 13 W 10 17 29.85 1011 10 16 0.00 0.00
3:53 pm 15:53 Sunny 71 21.7 17 -8.3 13 13 W 9 15 29.85 1011 10 16 0.00 0.00
4:53 pm 16:53 Sunny 68 20 18 -7.8 15 15 WSW 6 9 29.83 1010 10 16 0.00 0.00
5:53 pm 17:53 Clear 62 16.7 20 -6.7 20 20 WSW 7 11 29.85 1011 10 16 0.00 0.00
6:53 pm 18:53 Clear 54 12.2 24 -4.4 31 31 WSW 12 19 29.88 1012 10 16 0.00 0.00
7:53 pm 19:53 Clear 53 11.7 25 -3.9 34 34 WSW 9 15 29.88 1012 10 16 0.00 0.00
8:53 pm 20:53 Clear 54 12.2 26 -3.3 34 34 W 10 17 29.88 1012 10 16 0.00 0.00
9:53 pm 21:53 Clear 52 11.1 27 -2.8 38 38 W 9 15 29.87 1012 10 16 0.00 0.00
10:53 pm 22:53 Clear 54 12.2 26 -3.3 34 34 W 9 15 29.85 1011 10 16 0.00 0.00
11:53 pm 23:53 Clear 50 10 26 -3.3 39 39 W 7 11 29.84 1011 10 16 0.00 0.00

Powered by AerisWeather